Orbital Elements at Epoch 2457704.5 (2016-Nov-12.0) TDB
Reference: JPL 28 (heliocentric ecliptic J2000)
Element | Value | Uncertainty (1-sigma) | Units |
e | 1.001273416183913 | 1.4406e-05 | |
a | -4626.961188015751 | 52.33 | au |
q | 5.892047259156429 | 1.9663e-05 | au |
i | 93.71028613252301 | 3.79e-05 | deg |
node | 223.5666999421974 | 2.3972e-05 | deg |
peri | 341.8731661202858 | 0.00033101 | deg |
M | .001753776308752813 | 2.9743e-05 | deg |
tp | 2457144.466624289869 (2015-May-01.96662429) | 0.0033085 | TDB |
period | n/a n/a | n/a n/a | d yr |
n | 3.13155676932468E-6 | 5.3125e-08 | deg/d |
Q | n/a | n/a | au |
|
| | Orbit Determination Parameters
Additional Information
|